{"data":{"norad_id":44233,"intl_designator":"2019-028A","name":"RISAT-2B","alt_names":[],"object_type":"PAYLOAD","status":"ACTIVE","operator":null,"country":"IND","launch_date":"2019-05-22","launch_site_code":"SRILR","launch_vehicle":null,"mission":null,"orbit_class":"UNKNOWN","rcs_meters":null,"size_class":null,"mass_kg":null,"dimensions":null,"purposes":[],"wikipedia_slug":null,"has_3d_model":false,"image_url":null,"decayed_at":null,"tle_current":{"epoch":"2026-09-20T03:06:30.903840Z","epoch_age_seconds":90345,"freshness":"FRESH","line1":"1 44233U 19028A   26263.12952435  .00002017  00000+0  16161-3 0  9993","line2":"2 44233  36.9962 151.3298 0005966  65.2085 294.9278 15.00901635402102","mean_motion":15.00901635,"eccentricity":0.0005966,"inclination_deg":36.9962,"raan_deg":151.3298,"arg_perigee_deg":65.2085,"mean_anomaly_deg":294.9278,"bstar":0.00016161,"rev_number":40210,"period_min":95.942330024845,"perigee_km":559.9729315529,"apogee_km":568.25642625617,"semimajor_km":6942.2516789045,"source":"CELESTRAK","updated_at":"2026-09-20T09:00:14.455875Z"}}}